カタログに戻る

STARLINK-30803

運用中通信VLEO
NORAD 58157·PAYLOAD·🇺🇸 United States

打ち上げ Oct 29, 2023 から Vandenberg Space Force Base

Loading…

次のパス (今後24時間)

TLE

最新Source: CelesTrak SupGP

元期: Sep 15, 2026, 03:07 UTC

1 58157C 23166H   26258.13034722 -.00024638  00000+0 -79255-3 0  2582
2 58157  53.1589  58.2086 0001103  86.7291 288.3922 15.31704680    16

AllMySatでSTARLINK-30803をリアルタイム追跡

Download on the App Store